Regional Weather Roundup
Issued by NWS San Angelo, TX

Home | Current Version | Previous Version | Text Only | Print | Product List | Glossary On
Versions: 1 2 3 4 5 6 7 8 9 10 11 12 13 14 15 16 17 18 19 20 21 22 23 24 25 26 27 28 29 30 31 32 33 34 35 36 37 38 39 40 41 42 43 44 45 46 47 48 49 50
000
ASUS44 KSJT 301010
RWRSJT
WEST CENTRAL TEXAS REGIONAL WEATHER ROUNDUP
NATIONAL WEATHER SERVICE SAN ANGELO TX
500 AM CDT WED JUL 30 2014

NOTE: "FAIR" INDICATES FEW OR NO CLOUDS BELOW 12,000 FEET WITH NO
SIGNIFICANT WEATHER AND/OR OBSTRUCTIONS TO VISIBILITY.

TXZ049-054-064>066-071>073-076>078-098-099-113-114-127-128-139-140-
154-155-168>170-301100
...LOCATIONS ACROSS WEST CENTRAL TEXAS...

CITY           SKY/WX    TMP DP  RH WIND       PRES   REMARKS
SAN ANGELO     PTCLDY    78  66  66 S12       30.02F
ABILENE        CLOUDY    75  69  81 S12       30.02F
DYESS AFB      CLOUDY    74  69  82 S10       30.01F
JUNCTION       PTCLDY    76  62  62 CALM      30.06R
SWEETWATER     MOCLDY    74  67  77 SE16G23   30.06S
BROWNWOOD      CLOUDY    77  70  78 SE8       30.04F
COLEMAN        CLOUDY    76  67  71 S8        30.05F
SONORA         MOCLDY    77  59  53 S7        30.10S
OZONA          FAIR      77  57  50 S7        30.08S
BRADY          CLEAR     75  64  69 SE9       30.05S
$$

TEXAS PANHANDLE/OKLAHOMA PANHANDLE

CITY           SKY/WX    TMP DP  RH WIND       PRES   REMARKS
AMARILLO       LGT RAIN  66  63  90 SE12      30.09S
BORGER         MOCLDY    68  63  84 S10       30.05F
CANADIAN       TSTM      70  66  88 S8        30.05S
DALHART        MOCLDY    67  63  87 SW7       30.10R
DUMAS          MOSUNNY   66  62  87 S12       30.07S
GUYMON         NOT AVBL
HEREFORD       PTSUNNY   69  67  92 S17G24    30.08F THUNDER
PAMPA          CLOUDY    65  63  90 S17G24    30.07S
PERRYTON       CLOUDY    67  64  89 S10       30.04F
$$

SOUTHERN PANHANDLE/SOUTH PLAINS/ROLLING PLAINS

CITY           SKY/WX    TMP DP  RH WIND       PRES   REMARKS
LUBBOCK        MOCLDY    70  65  84 S9        30.06F
SNYDER         MOCLDY    71  66  83 S8        30.05R
CHILDRESS      LGT RAIN  69  66  90 E6        30.06R
SEMINOLE       PTSUNNY   68  63  83 CALM      30.06F
$$

PERMIAN BASIN

CITY           SKY/WX    TMP DP  RH WIND       PRES   REMARKS
MIDLAND        PTCLDY    74  52  46 SE8       30.04S
ODESSA         PTCLDY    79  50  36 S10       30.04F
WINK           PTCLDY    80  53  39 SE13      30.00F
$$

FAR WEST/SOUTHWEST MOUNTAINS/TRANS PECOS

CITY           SKY/WX    TMP DP  RH WIND       PRES   REMARKS
ALPINE         SUNNY     73  48  41 SW10      30.19S
DRYDEN           N/A     81  52  36 CALM      30.01S
EL PASO        PTCLDY    76  65  68 N5        30.07R
FORT STOCKTON  CLEAR     78  52  40 S14G23    30.03F
GUADALUPE PASS MOCLDY    74  49  41 SW13      30.20F
MARFA          CLEAR     61  52  72 CALM      30.20S
PECOS          MOSUNNY   79  49  35 SE7       29.99S
$$

DALLAS/FORT WORTH METROPLEX

CITY           SKY/WX    TMP DP  RH WIND       PRES   REMARKS
DFW AIRPORT    CLOUDY    77  65  66 SE5       30.03R
FTW MEACHAM    CLOUDY    76  65  68 SE8       30.03R
DAL-EXECUTIVE  CLOUDY    77  68  73 SE7       30.03S
GRAND PRAIRIE  CLOUDY    76  64  67 E3        30.05R
ADDISON        CLOUDY    80  63  56 SE8       30.05S
MESQUITE       CLOUDY    74  67  78 SE6       30.04S
LANCASTER      CLOUDY    71  67  85 CALM      30.05R
$$

NORTH CENTRAL TEXAS

CITY           SKY/WX    TMP DP  RH WIND       PRES   REMARKS
SHRMAN/DENISON CLOUDY    74  64  70 E3        30.06S
GAINESVILLE    CLOUDY    73  63  72 CALM      30.07R
BRIDGEPORT     CLOUDY    71  64  80 W7        30.08R
DENTON         CLOUDY    72  67  84 CALM      30.03S
WAXAHACHIE     CLOUDY    74  66  77 SE6       30.05S
GRANBURY       CLOUDY    76  66  71 E8        30.04F
$$

WESTERN NORTH TEXAS

CITY           SKY/WX    TMP DP  RH WIND       PRES   REMARKS
WICHITA FALLS  HVY RAIN  66  63  90 S6        30.07S FOG
VERNON         CLOUDY    70  66  86 SE10      30.04S
BRECKENRIDGE   CLOUDY    79  64  60 S9        30.02S
COMANCHE       CLOUDY    76  68  78 SE6       30.05F
$$

CENTRAL AND SOUTH CENTRAL TEXAS

CITY           SKY/WX    TMP DP  RH WIND       PRES   REMARKS
AUSTIN/BERGSTM PTCLDY    74  69  85 S6        30.03S
WACO           PTCLDY    76  71  85 S8        30.04S
HILLSBORO      CLOUDY    75  68  78 SE7       30.04S
TEMPLE         CLEAR     73  66  78 SE7       30.05S
KILLEEN-GRAY   PTCLDY    75  72  88 SE13      30.04F
FORT HOOD      CLEAR     77  71  82 SE8       30.04S
GEORGETOWN     CLEAR     75  72  88 CALM      30.06R
LAGO VISTA     FAIR      77  66  69 S3        30.07R
SAN MARCOS     CLEAR     75  66  73 S7        30.06S
NEW BRAUNFELS  PTCLDY    74  70  87 S6        30.03F
RANDOLPH AFB   CLOUDY    75  71  89 SE6       30.06R
SAN ANTONIO    PTCLDY    76  72  87 S7        30.05S
STINSON        CLEAR     75  71  87 CALM      30.03R
PLEASANTON     NOT AVBL
LA GRANGE      CLEAR     75  73  92 CALM      30.03S
GIDDINGS       SUNNY     72  70  94 CALM      30.08S
$$

EAST TEXAS

CITY           SKY/WX    TMP DP  RH WIND       PRES   REMARKS
PARIS          CLOUDY    72  63  73 SE7       30.07S
CLARKSVILLE    PTSUNNY   73  65  76 SE3       30.07S
TYLER          PTCLDY    75  66  73 SE10      30.05F
LONGVIEW       PTCLDY    73  65  75 SE8       30.06S
PALESTINE      NOT AVBL
NACOGDOCHES    CLEAR     72  66  83 E6        30.07S
$$

TEXAS HILL COUNTRY AND EDWARDS PLATEAU

CITY           SKY/WX    TMP DP  RH WIND       PRES   REMARKS
LLANO          MOSUNNY   73  68  83 CALM      30.07S
HORSESHOE BAY  FAIR      76  63  64 S5        30.04S
KERRVILLE      PTCLDY    72  64  78 SE7       30.07F
FREDERICKSBRG  PTCLDY    73  57  56 CALM      30.07F
ROCKSPRINGS    SUNNY     73  57  56 SE14G20   30.09F
HONDO          PTCLDY    70  64  81 NE3       30.06S
UVALDE         MOSUNNY   75  65  70 E6        30.05S
DEL RIO        CLEAR     81  66  60 SE8       29.99S
$$

SOUTHEAST TEXAS

CITY           SKY/WX    TMP DP  RH WIND       PRES   REMARKS
COLLEGE STN    CLEAR     74  72  93 S5        30.05R
CALDWELL       SUNNY     72  72 100 SE3       30.07S
CROCKETT       SUNNY     75  73  94 E3        30.08S
BRENHAM        CLEAR     73  71  95 CALM      30.05S FOG
HUNTSVILLE     CLEAR     78  64  61 S3        30.05S
CONROE         PTCLDY    69  68  96 CALM      30.06R
HOUSTON BUSH   PTCLDY    73  71  93 CALM      30.04S
HOUSTON HOBBY  PTCLDY    76  73  91 CALM      30.03S
PERLAND        CLEAR     75  72  90 CALM      30.04F
WHARTON        MOSUNNY   72  71  98 CALM      30.04F FOG
$$

THE UPPER TEXAS COAST

CITY           SKY/WX    TMP DP  RH WIND       PRES   REMARKS
ORANGE         SUNNY     71  71 100 CALM      30.06R
PORT ARTHUR    CLEAR     74  71  91 CALM      30.03S
GALVESTON      PTCLDY    81  76  84 E3        30.04S
ANGLETON       CLOUDY    73  73 100 N3        30.03S
BAY CITY       SUNNY     75  75 100 CALM      30.03S
$$

TEXAS COASTAL BEND, RIO GRANDE PLAINS DEEP SOUTH TEXAS

CITY           SKY/WX    TMP DP  RH WIND       PRES   REMARKS
VICTORIA       PTCLDY    77  74  90 E5        30.04S
BEEVILLE       FAIR      73  73 100 SE6       30.02F FOG
ROCKPORT       PTCLDY    80  75  84 VRB5      30.02R
PORT ARANSAS   PTSUNNY   78  76  95 S7        30.02S
PORT LAVACA    MOSUNNY   76  74  94 SE3       30.03S
CORPUS CHRISTI MOCLDY    75  72  90 CALM      30.02S
KINGSVILLE NAS CLEAR     74  74 100 E3        30.02S
COTULLA        CLEAR     76  69  79 SE7       30.01F
LAREDO         CLEAR     80  72  76 S14       30.03S
BROWNSVILLE    PTCLDY    75  74  96 SE5       30.02F
PORT ISABEL    CLEAR     79  74  84 S8        30.02S
HEBBRONVILLE   CLOUDY    77  73  86 S7        30.03F
MCALLEN        CLEAR     76  73  91 SE6       30.02F
WESLACO        NOT AVBL
FALFURRIAS     SUNNY     58  32  37 CALM      30.01F
EDINBURG       SUNNY     77  73  87 S3        30.02S
$$



USA.gov is the U.S. government's official web portal to all federal, state and local government web resources and services.